TimeEST,TemperatureF,Dew PointF,Humidity,Sea Level PressureIn,VisibilityMPH,Wind Direction,Wind SpeedMPH,Gust SpeedMPH,PrecipitationIn,Events,Conditions,WindDirDegrees,DateUTC
12:58 AM,57.0,55.9,96,30.15,4.0,SW,5.8,-,N/A,,Clear,220,2013-01-30 05:58:00
1:58 AM,57.0,57.0,100,30.13,4.0,SSW,4.6,-,0.01,,Clear,210,2013-01-30 06:58:00
2:58 AM,61.0,60.1,97,30.11,6.0,South,9.2,-,N/A,,Partly Cloudy,190,2013-01-30 07:58:00
3:58 AM,61.0,60.1,97,30.09,8.0,South,10.4,-,N/A,,Clear,190,2013-01-30 08:58:00
4:58 AM,61.0,59.0,93,30.08,9.0,South,10.4,-,N/A,,Clear,190,2013-01-30 09:58:00
5:58 AM,61.0,59.0,93,30.07,9.0,South,12.7,-,N/A,,Clear,190,2013-01-30 10:58:00
7:58 AM,63.0,61.0,93,30.08,8.0,South,12.7,-,N/A,,Clear,190,2013-01-30 12:58:00
8:58 AM,64.9,61.0,87,30.04,9.0,South,13.8,-,N/A,,Clear,180,2013-01-30 13:58:00
9:58 AM,66.0,62.1,87,30.05,8.0,South,15.0,-,N/A,,Clear,190,2013-01-30 14:58:00
10:58 AM,68.0,62.1,81,30.02,9.0,South,16.1,-,N/A,,Partly Cloudy,190,2013-01-30 15:58:00
11:17 AM,69.8,62.6,78,30.01,9.0,South,16.1,-,N/A,,Mostly Cloudy,190,2013-01-30 16:17:00
11:58 AM,69.1,62.1,78,30.00,9.0,SSW,16.1,23.0,N/A,,Mostly Cloudy,200,2013-01-30 16:58:00
12:19 PM,69.8,60.8,73,29.99,9.0,SSW,15.0,-,N/A,,Overcast,200,2013-01-30 17:19:00
12:58 PM,68.0,62.1,81,29.96,9.0,South,16.1,-,N/A,,Overcast,190,2013-01-30 17:58:00
1:56 PM,66.2,60.8,83,29.93,8.0,South,17.3,-,N/A,,Overcast,190,2013-01-30 18:56:00
1:58 PM,66.9,61.0,81,29.93,8.0,South,17.3,-,N/A,,Overcast,190,2013-01-30 18:58:00
2:50 PM,66.2,60.8,83,29.92,7.0,South,12.7,-,N/A,,Overcast,190,2013-01-30 19:50:00
2:58 PM,66.9,61.0,81,29.92,7.0,South,15.0,-,N/A,,Overcast,190,2013-01-30 19:58:00
3:58 PM,66.0,61.0,84,29.89,7.0,South,15.0,-,N/A,,Mostly Cloudy,190,2013-01-30 20:58:00
4:58 PM,64.9,60.1,84,29.86,6.0,South,13.8,21.9,N/A,,Haze,180,2013-01-30 21:58:00
5:58 PM,64.0,60.1,87,29.83,8.0,South,13.8,20.7,N/A,,Overcast,180,2013-01-30 22:58:00
6:58 PM,64.9,60.1,84,29.82,8.0,South,16.1,-,N/A,,Overcast,190,2013-01-30 23:58:00
7:58 PM,66.0,60.1,81,29.78,7.0,South,19.6,33.4,N/A,,Overcast,180,2013-01-31 00:58:00
8:58 PM,66.0,60.1,81,29.76,7.0,South,20.7,27.6,N/A,,Overcast,180,2013-01-31 01:58:00
9:58 PM,64.9,60.1,84,29.73,7.0,South,20.7,28.8,N/A,,Overcast,190,2013-01-31 02:58:00
10:58 PM,64.9,60.1,84,29.71,7.0,South,21.9,31.1,N/A,,Mostly Cloudy,190,2013-01-31 03:58:00
11:58 PM,66.0,61.0,84,29.66,6.0,South,20.7,31.1,N/A,,Haze,190,2013-01-31 04:58:00